DW0000 Weather Reports


Display with metric or nautical units.
time (UTC)temp
F
wind
direction
speed
MPH
gust
MPH
rain 1hr
in
rain 24hr
in
rain mn
in
humidity
%
barometer
mb
20260506023007 69 28 5.0 13.0 0.00 0.00 0.00 75 1026.4
20260506021505 68 0 9.0 15.0 0.00 0.00 0.00 77 1026.2
20260506021007 68 47 8.0 13.0 0.00 0.00 0.00 76 1026.3
20260506020505 69 31 7.0 12.0 0.00 0.00 0.00 76 1026.4
20260506015507 70 39 4.0 13.0 0.00 0.00 0.00 75 1026.3
20260506015005 70 36 6.0 13.0 0.00 0.00 0.00 76 1026.4
20260506014505 70 44 9.0 14.0 0.00 0.00 0.00 75 1026.4
20260506014007 69 42 6.0 17.0 0.00 0.00 0.00 76 1026.3
20260506013006 69 27 6.0 15.0 0.00 0.00 0.00 77 1026.4
20260506011505 67 43 6.0 12.0 0.00 0.00 0.00 81 1026.6
20260506010005 67 12 7.0 10.0 0.00 0.00 0.00 80 1026.7
20260506005506 68 41 6.0 13.0 0.00 0.00 0.00 79 1026.7
20260506004505 67 21 8.0 14.0 0.00 0.00 0.00 80 1026.7
20260506003006 68 31 7.0 14.0 0.00 0.00 0.00 79 1027.0
20260506002005 68 43 6.0 12.0 0.00 0.00 0.00 77 1027.1
20260506001505 68 10 6.0 13.0 0.00 0.00 0.00 78 1027.1
20260506000005 69 35 6.0 13.0 0.00 0.00 0.00 79 1027.3
20260505235005 67 31 7.0 12.0 0.00 0.00 0.00 80 1027.5
20260505234506 67 45 6.0 13.0 0.00 0.00 0.00 81 1027.6
20260505234005 67 77 6.0 16.0 0.00 0.00 0.00 80 1027.6
20260505233505 67 113 5.0 9.0 0.00 0.00 0.00 80 1027.6
20260505233006 67 71 4.0 9.0 0.00 0.00 0.00 82 1027.8
20260505230005 65 20 3.0 9.0 0.00 0.00 0.00 87 1027.9
20260505225005 65 51 3.0 9.0 0.00 0.00 0.00 88 1028.0
20260505224507 64 50 5.0 10.0 0.00 0.00 0.00 88 1028.0
20260505224005 64 36 4.0 13.0 0.00 0.00 0.00 88 1028.0
20260505223505 64 43 3.0 13.0 0.00 0.00 0.00 89 1028.1
20260505223006 64 58 2.0 6.0 0.00 0.00 0.00 89 1028.1
20260505222506 64 68 3.0 10.0 0.00 0.00 0.00 89 1028.1
20260505220505 63 32 3.0 6.0 0.00 0.00 0.00 92 1028.3
20260505215505 63 71 3.0 7.0 0.00 0.00 0.00 93 1028.3
20260505215007 63 79 3.0 8.0 0.00 0.00 0.00 95 1028.3
20260505214505 63 67 4.0 7.0 0.00 0.00 0.00 96 1028.4
20260505212504 62 82 1.0 3.0 0.00 0.00 0.00 99 1028.3
20260505211005 61 58 1.0 3.0 0.00 0.00 0.00 99 1028.5
20260505210505 60 52 2.0 3.0 0.00 0.00 0.00 99 1028.5
20260505205005 60 80 2.0 5.0 0.00 0.00 0.00 99 1028.4
20260505204505 59 81 2.0 5.0 0.00 0.00 0.00 99 1028.5
20260505203006 58 86 2.0 5.0 0.00 0.00 0.00 99 1028.4
20260505201505 57 109 2.0 5.0 0.00 0.00 0.00 99 1028.3
20260505201005 57 101 2.0 5.0 0.00 0.00 0.00 99 1028.2
20260505200005 57 92 2.0 5.0 0.00 0.00 0.00 98 1028.0
20260505194504 56 80 3.0 6.0 0.00 0.00 0.00 98 1027.8
20260505194005 56 97 3.0 5.0 0.00 0.00 0.00 98 1027.8
20260505193504 56 87 3.0 5.0 0.00 0.00 0.00 98 1028.0
20260505192504 56 93 3.0 5.0 0.00 0.00 0.00 98 1027.8
20260505190505 56 85 2.0 5.0 0.00 0.00 0.00 97 1027.8
20260505190005 56 79 3.0 5.0 0.00 0.00 0.00 97 1027.6
20260505184504 56 116 3.0 3.0 0.00 0.00 0.00 96 1027.8
20260505183005 56 95 2.0 5.0 0.00 0.00 0.00 96 1027.9
20260505182504 57 76 3.0 5.0 0.00 0.00 0.00 96 1027.8
20260505182004 57 77 3.0 5.0 0.00 0.00 0.00 96 1027.9
20260505181507 57 77 3.0 7.0 0.00 0.00 0.00 96 1027.7
20260505174005 56 70 3.0 5.0 0.00 0.00 0.00 95 1027.5
20260505172504 56 93 2.0 5.0 0.00 0.00 0.00 95 1027.7
20260505172006 57 99 3.0 5.0 0.00 0.00 0.00 94 1027.7
20260505171505 57 94 3.0 5.0 0.00 0.00 0.00 95 1027.7
20260505170007 57 102 3.0 6.0 0.00 0.00 0.00 94 1027.7
20260505165506 57 108 3.0 6.0 0.00 0.00 0.00 94 1027.7
20260505164508 57 88 6.0 7.0 0.00 0.00 0.00 95 1027.9
20260505163009 56 96 5.0 6.0 0.00 0.00 0.00 94 1027.8
20260505162506 57 108 5.0 6.0 0.00 0.00 0.00 93 1027.8
20260505161008 57 95 3.0 7.0 0.00 0.00 0.00 93 1027.9
20260505150506 58 88 6.0 6.0 0.00 0.00 0.00 90 1028.1
20260505125008 57 334 2.0 2.0 0.00 0.00 0.00 93 1029.4
20260505124508 57 333 2.0 2.0 0.00 0.00 0.00 93 1029.5
20260505122506 56 319 2.0 3.0 0.00 0.00 0.00 93 1029.6
20260505122007 56 326 2.0 3.0 0.00 0.00 0.00 94 1029.6
20260505121006 57 311 1.0 2.0 0.00 0.00 0.00 94 1029.4
20260505120506 57 351 0.0 2.0 0.00 0.00 0.00 94 1029.5
20260505115006 56 123 2.0 2.0 0.00 0.00 0.00 94 1029.5
20260505113006 56 85 1.0 1.0 0.00 0.00 0.00 94 1029.5
20260505111507 56 67 3.0 6.0 0.00 0.00 0.00 94 1029.6
20260505111007 56 86 5.0 6.0 0.00 0.00 0.00 94 1029.6
20260505102008 57 88 5.0 5.0 0.00 0.00 0.00 93 1030.0
20260505101006 57 92 5.0 6.0 0.00 0.00 0.00 94 1029.9
20260505100507 57 86 4.0 6.0 0.00 0.00 0.00 94 1029.9
20260505100007 57 81 5.0 6.0 0.00 0.00 0.00 94 1029.9
20260505095506 57 79 5.0 6.0 0.00 0.00 0.00 93 1030.0
20260505094008 57 85 4.0 5.0 0.00 0.00 0.00 93 1029.9
20260505092507 57 90 3.0 5.0 0.00 0.00 0.00 93 1029.8
20260505091506 58 95 3.0 5.0 0.00 0.00 0.00 93 1029.8
20260505091006 58 83 5.0 6.0 0.00 0.00 0.00 93 1030.0
20260505090006 58 78 5.0 6.0 0.00 0.00 0.00 93 1029.7
20260505085006 58 81 5.0 6.0 0.00 0.00 0.00 93 1029.9
20260505084006 58 83 5.0 5.0 0.00 0.00 0.00 93 1029.7
20260505083006 58 84 5.0 5.0 0.00 0.00 0.00 92 1029.5
20260505082007 58 79 3.0 6.0 0.00 0.00 0.00 92 1029.8
20260505081506 58 81 5.0 6.0 0.00 0.00 0.00 92 1029.6
20260505081007 58 78 4.0 5.0 0.00 0.00 0.00 91 1029.7
20260505080006 58 84 2.0 5.0 0.00 0.00 0.00 90 1029.8
20260505075506 58 83 2.0 5.0 0.00 0.00 0.00 89 1029.8
20260505075008 58 85 2.0 3.0 0.00 0.00 0.00 89 1029.7
20260505074006 59 80 3.0 5.0 0.00 0.00 0.00 88 1029.7
20260505073007 59 83 4.0 8.0 0.00 0.00 0.00 88 1029.7
20260505072506 60 87 5.0 7.0 0.00 0.00 0.00 87 1029.6
20260505071507 60 75 4.0 7.0 0.00 0.00 0.00 86 1029.6
20260505070506 60 80 5.0 9.0 0.00 0.00 0.00 86 1029.4
20260505070007 60 82 5.0 9.0 0.00 0.00 0.00 86 1029.5
20260505065006 61 83 5.0 8.0 0.00 0.00 0.00 86 1029.4
20260505063506 61 76 5.0 6.0 0.00 0.00 0.00 84 1029.4
20260505063006 62 69 3.0 6.0 0.00 0.00 0.00 84 1029.6
20260505062505 62 81 4.0 6.0 0.00 0.00 0.00 85 1029.5
20260505062007 62 76 5.0 9.0 0.00 0.00 0.00 85 1029.4
20260505061006 62 52 2.0 5.0 0.00 0.00 0.00 84 1029.5
20260505060507 62 36 2.0 7.0 0.00 0.00 0.00 83 1029.5
20260505060005 62 29 3.0 7.0 0.00 0.00 0.00 83 1029.5
20260505055507 62 11 2.0 3.0 0.00 0.00 0.00 83 1029.4
20260505053505 62 49 3.0 6.0 0.00 0.00 0.00 82 1029.3
20260505053008 62 36 2.0 5.0 0.00 0.00 0.00 81 1029.3
20260505052006 62 50 3.0 6.0 0.00 0.00 0.00 81 1029.3
20260505051506 63 27 3.0 7.0 0.00 0.00 0.00 81 1029.4
20260505041005 64 79 4.0 7.0 0.00 0.00 0.00 79 1029.7
20260505040005 65 63 4.0 10.0 0.00 0.00 0.00 78 1029.6
20260505035506 65 52 3.0 6.0 0.00 0.00 0.00 79 1029.5
20260505035006 65 74 4.0 8.0 0.00 0.00 0.00 78 1029.6
20260505034006 65 60 3.0 7.0 0.00 0.00 0.00 79 1029.5
20260505033505 65 45 3.0 7.0 0.00 0.00 0.00 78 1029.6
20260505033007 65 63 4.0 8.0 0.00 0.00 0.00 78 1029.6
20260505032505 65 71 4.0 10.0 0.00 0.00 0.00 78 1029.6
20260505032005 65 60 5.0 8.0 0.00 0.00 0.00 77 1029.5
20260505025507 67 37 5.0 8.0 0.00 0.00 0.00 74 1029.5
20260505025005 67 49 5.0 9.0 0.00 0.00 0.00 74 1029.5
20260505024007 67 81 6.0 12.0 0.00 0.00 0.00 73 1029.5